^^
Station Historical Data
 
Daily Summary for September 19, 2018 Units:  Metric    English   Both
« Previous Day
Next Day »
Daily Weekly Monthly Yearly Custom
  Current: High: Low: Average:
Temperature: -9.4 °C -17.8 °C -10.2 °C -10.1 °C
Dew Point: -11.7 °C -17.8 °C -13.4 °C -12.3 °C
Humidity: 76% Humidity% 67% 75%
Wind Speed: 89.3km/h 0km/h 20.9km/h 41.4km/h
Wind Gust: 68.9km/h 0km/h - -
WindSW - - WSW
Pressure: 33711 hPa 0 hPa 33711 hPa -
Precipitation: 0 mm      
Historical Graphs
 
 
Tabular Data for September 19, 2018
Time Temperature Dew Point Pressure Wind Wind Speed Wind Gust Humidity Rainfall Rate (Hourly) solar Conditions
-17.8 °C -17.8 °C 0 hPa Calm     Humidity% 0 mm SoftwareType W/m2 Conditions
00:04 -9.5 °C -12.6 °C 33971.7 hPa South 29.8 km/h 11.6 km/h 69% 0 mm WeatherDisplay:10.37 W/m2 RA
00:09 -9.6 °C -12.7 °C 33971.7 hPa SW 35.7 km/h 11.6 km/h 69% 0 mm WeatherDisplay:10.37 W/m2 RA
00:14 -9.6 °C -12.7 °C 33971.7 hPa North 35.7 km/h 17.9 km/h 69% 0 mm WeatherDisplay:10.37 W/m2 BKN
00:19 -9.6 °C -12.6 °C 33971.7 hPa NW 20.9 km/h 29.5 km/h 70% 0 mm WeatherDisplay:10.37 W/m2 BKN
00:24 -9.6 °C -12.7 °C 33975.1 hPa NW 38.8 km/h 29.5 km/h 69% 0 mm WeatherDisplay:10.37 W/m2 BKN
00:29 -9.6 °C -12.7 °C 33975.1 hPa South 38.8 km/h 11.6 km/h 69% 0 mm WeatherDisplay:10.37 W/m2 BKN
00:34 -9.6 °C -12.7 °C 33975.1 hPa SW 47.6 km/h 19.6 km/h 69% 0 mm WeatherDisplay:10.37 W/m2 BKN
00:39 -9.7 °C -12.8 °C 33975.1 hPa SW 35.7 km/h 33.6 km/h 69% 0 mm WeatherDisplay:10.37 W/m2 BKN
00:44 -9.7 °C -12.9 °C 33971.7 hPa NW 32.8 km/h 23.8 km/h 68% 0 mm WeatherDisplay:10.37 W/m2 BKN
00:49 -9.7 °C -12.9 °C 33975.1 hPa NW 32.8 km/h 31.4 km/h 68% 0 mm WeatherDisplay:10.37 W/m2 BKN
00:54 -9.7 °C -13.1 °C 33978.5 hPa NW 23.8 km/h 19.6 km/h 67% 0 mm WeatherDisplay:10.37 W/m2 BKN
00:59 -9.7 °C -13.1 °C 33985.3 hPa WNW 41.7 km/h 21.6 km/h 67% 0 mm WeatherDisplay:10.37 W/m2 BKN
01:04 -9.7 °C -13.1 °C 33988.7 hPa NW 26.9 km/h 23.8 km/h 67% 0 mm WeatherDisplay:10.37 W/m2 BKN
01:09 -9.7 °C -12.9 °C 33992.1 hPa NNW 35.7 km/h 15.6 km/h 68% 0 mm WeatherDisplay:10.37 W/m2 BKN
01:14 -9.8 °C -13 °C 33995.4 hPa NW 41.7 km/h 15.6 km/h 68% 0 mm WeatherDisplay:10.37 W/m2 BKN
01:19 -9.8 °C -13.1 °C 33992.1 hPa West 23.8 km/h 8 km/h 68% 0 mm WeatherDisplay:10.37 W/m2 BKN
01:24 -9.8 °C -13.1 °C 33988.7 hPa SW 38.8 km/h 15.6 km/h 68% 0 mm WeatherDisplay:10.37 W/m2 BKN
01:29 -9.8 °C -13.1 °C 33985.3 hPa West 44.7 km/h 23.8 km/h 68% 0 mm WeatherDisplay:10.37 W/m2 BKN
01:34 -9.9 °C -13.1 °C 33988.7 hPa NW 32.8 km/h 21.6 km/h 68% 0 mm WeatherDisplay:10.37 W/m2 BKN
01:39 -9.9 °C -13.1 °C 33985.3 hPa NW 38.8 km/h 19.6 km/h 68% 0 mm WeatherDisplay:10.37 W/m2 BKN
01:44 -9.9 °C -13.3 °C 33975.1 hPa West 32.8 km/h 19.6 km/h 67% 0 mm WeatherDisplay:10.37 W/m2 BKN
01:49 -9.9 °C -13.3 °C 33981.9 hPa NW 32.8 km/h 29.5 km/h 67% 0 mm WeatherDisplay:10.37 W/m2 BKN
01:54 -9.9 °C -13.3 °C 33981.9 hPa SW 29.8 km/h 21.6 km/h 67% 0 mm WeatherDisplay:10.37 W/m2 BKN
01:59 -9.9 °C -13.3 °C 33981.9 hPa SW 29.8 km/h 19.6 km/h 67% 0 mm WeatherDisplay:10.37 W/m2 BKN
02:04 -9.9 °C -13.3 °C 33985.3 hPa West 32.8 km/h 14 km/h 67% 0 mm WeatherDisplay:10.37 W/m2 BKN
02:09 -10 °C -13.4 °C 33981.9 hPa West 29.8 km/h 21.6 km/h 67% 0 mm WeatherDisplay:10.37 W/m2 BKN
02:14 -10 °C -13.4 °C 33985.3 hPa SW 23.8 km/h 17.9 km/h 67% 0 mm WeatherDisplay:10.37 W/m2 BKN
02:19 -10 °C -13.4 °C 33978.5 hPa West 32.8 km/h 23.8 km/h 67% 0 mm WeatherDisplay:10.37 W/m2 BKN
02:24 -10.1 °C -13.3 °C 33975.1 hPa West 35.7 km/h 19.6 km/h 68% 0 mm WeatherDisplay:10.37 W/m2 BKN
02:29 -10.1 °C -13.3 °C 33975.1 hPa West 26.9 km/h 9.8 km/h 68% 0 mm WeatherDisplay:10.37 W/m2 BKN
02:34 -10.1 °C -13.3 °C 33971.7 hPa SW 32.8 km/h 19.6 km/h 68% 0 mm WeatherDisplay:10.37 W/m2 BKN
02:39 -10.1 °C -13.2 °C 33968.4 hPa West 29.8 km/h 23.8 km/h 69% 0 mm WeatherDisplay:10.37 W/m2 BKN
02:44 -10.1 °C -13.2 °C 33965 hPa South 41.7 km/h 17.9 km/h 69% 0 mm WeatherDisplay:10.37 W/m2 BKN
02:49 -10.1 °C -13.2 °C 33958.2 hPa SW 44.7 km/h 17.9 km/h 69% 0 mm WeatherDisplay:10.37 W/m2 BKN
02:54 -10.1 °C -13.1 °C 33954.8 hPa North 44.7 km/h 23.8 km/h 70% 0 mm WeatherDisplay:10.37 W/m2 BKN
02:59 -10.1 °C -13.1 °C 33948 hPa West 50.7 km/h 19.6 km/h 70% 0 mm WeatherDisplay:10.37 W/m2 BKN
03:04 -10.1 °C -13.1 °C 33948 hPa West 41.7 km/h 29.5 km/h 70% 0 mm WeatherDisplay:10.37 W/m2 BKN
03:09 -10.1 °C -13.2 °C 33941.3 hPa NNW 32.8 km/h 19.6 km/h 69% 0 mm WeatherDisplay:10.37 W/m2 BKN
03:14 -10.1 °C -13.2 °C 33941.3 hPa SW 29.8 km/h 31.4 km/h 69% 0 mm WeatherDisplay:10.37 W/m2 BKN
03:19 -10.1 °C -13.1 °C 33937.9 hPa West 38.8 km/h 19.6 km/h 70% 0 mm WeatherDisplay:10.37 W/m2 BKN
03:24 -10.1 °C -13.1 °C 33937.9 hPa NW 53.6 km/h 31.4 km/h 70% 0 mm WeatherDisplay:10.37 W/m2 BKN
03:29 -10.1 °C -12.9 °C 33944.7 hPa SW 53.6 km/h 33.6 km/h 71% 0 mm WeatherDisplay:10.37 W/m2 BKN
03:34 -10.1 °C -12.8 °C 33941.3 hPa NW 50.7 km/h 39.4 km/h 72% 0 mm WeatherDisplay:10.37 W/m2 BKN
03:39 -10 °C -12.7 °C 33941.3 hPa SW 44.7 km/h 29.5 km/h 72% 0 mm WeatherDisplay:10.37 W/m2 BKN
03:44 -10.1 °C -12.6 °C 33937.9 hPa WNW 44.7 km/h 23.8 km/h 74% 0 mm WeatherDisplay:10.37 W/m2 BKN
03:49 -10.1 °C -12.4 °C 33934.5 hPa West 38.8 km/h 21.6 km/h 75% 0 mm WeatherDisplay:10.37 W/m2 BKN
03:54 -10.1 °C -12.4 °C 33924.3 hPa West 44.7 km/h 15.6 km/h 75% 0 mm WeatherDisplay:10.37 W/m2 BKN
03:59 -10.1 °C -12.4 °C 33924.3 hPa West 47.6 km/h 29.5 km/h 76% 0 mm WeatherDisplay:10.37 W/m2 BKN
04:04 -10.2 °C -12.4 °C 33920.9 hPa SW 38.8 km/h 23.8 km/h 76% 0 mm WeatherDisplay:10.37 W/m2 BKN
04:09 -10.2 °C -12.4 °C 33907.4 hPa NNW 32.8 km/h 21.6 km/h 77% 0 mm WeatherDisplay:10.37 W/m2 BKN
04:14 -10.2 °C -12.3 °C 33904 hPa NW 35.7 km/h 25.4 km/h 78% 0 mm WeatherDisplay:10.37 W/m2 BKN
04:19 -10.2 °C -12.2 °C 33897.2 hPa South 32.8 km/h 29.5 km/h 79% 0 mm WeatherDisplay:10.37 W/m2 BKN
04:24 -10.2 °C -12.2 °C 33887.1 hPa SW 32.8 km/h 19.6 km/h 79% 0 mm WeatherDisplay:10.37 W/m2 BKN
04:29 -10.2 °C -12.1 °C 33883.7 hPa West 35.7 km/h 23.8 km/h 80% 0 mm WeatherDisplay:10.37 W/m2 BKN
04:34 -10.2 °C -12 °C 33880.3 hPa NW 41.7 km/h 21.6 km/h 81% 0 mm WeatherDisplay:10.37 W/m2 BKN
04:39 -10.2 °C -12 °C 33876.9 hPa SW 44.7 km/h 27.7 km/h 81% 0 mm WeatherDisplay:10.37 W/m2 BKN
04:44 -10.2 °C -11.9 °C 33876.9 hPa SW 38.8 km/h 21.6 km/h 82% 0 mm WeatherDisplay:10.37 W/m2 BKN
04:49 -10.2 °C -11.8 °C 33876.9 hPa SW 32.8 km/h 17.9 km/h 83% 0 mm WeatherDisplay:10.37 W/m2 BKN
04:54 -10.2 °C -11.6 °C 33873.5 hPa SE 38.8 km/h 23.8 km/h 84% 0 mm WeatherDisplay:10.37 W/m2 BKN
04:59 -10.2 °C -11.6 °C 33873.5 hPa West 38.8 km/h 25.4 km/h 85% 0 mm WeatherDisplay:10.37 W/m2 BKN
05:04 -10.2 °C -11.6 °C 33870.2 hPa SW 44.7 km/h 29.5 km/h 85% 0 mm WeatherDisplay:10.37 W/m2 BKN
05:09 -10.2 °C -11.6 °C 33866.8 hPa West 38.8 km/h 29.5 km/h 85% 0 mm WeatherDisplay:10.37 W/m2 BKN
05:14 -10.2 °C -11.6 °C 33866.8 hPa SW 32.8 km/h 23.8 km/h 85% 0 mm WeatherDisplay:10.37 W/m2 BKN
05:19 -10.1 °C -11.4 °C 33849.8 hPa NNE 35.7 km/h 23.8 km/h 86% 0 mm WeatherDisplay:10.37 W/m2 BKN
05:24 -10.1 °C -11.4 °C 33843.1 hPa South 35.7 km/h 21.6 km/h 86% 0 mm WeatherDisplay:10.37 W/m2 BKN
05:29 -10.1 °C -11.3 °C 33843.1 hPa NW 32.8 km/h 25.4 km/h 86% 0 mm WeatherDisplay:10.37 W/m2 BKN
05:34 -10.1 °C -11.2 °C 33832.9 hPa NW 35.7 km/h 19.6 km/h 87% 0 mm WeatherDisplay:10.37 W/m2 BKN
05:39 -10 °C -11.3 °C 33822.8 hPa NNW 35.7 km/h 17.9 km/h 86% 0 mm WeatherDisplay:10.37 W/m2 BKN
05:44 -10 °C -11.3 °C 33812.6 hPa SW 29.8 km/h 17.9 km/h 86% 0 mm WeatherDisplay:10.37 W/m2 BKN
05:49 -10 °C -11.3 °C 33812.6 hPa SW 44.7 km/h 14 km/h 86% 0 mm WeatherDisplay:10.37 W/m2 BKN
05:54 -10 °C -11.3 °C 33812.6 hPa West 35.7 km/h 25.4 km/h 86% 0 mm WeatherDisplay:10.37 W/m2 BKN
05:59 -10 °C -11.2 °C 33802.4 hPa NW 26.9 km/h 19.6 km/h 87% 0 mm WeatherDisplay:10.37 W/m2 BKN
06:04 -10 °C -11.2 °C 33792.3 hPa SW 29.8 km/h 17.9 km/h 87% 0 mm WeatherDisplay:10.37 W/m2 BKN
06:09 -10 °C -11.2 °C 33795.7 hPa NW 38.8 km/h 17.9 km/h 87% 0 mm WeatherDisplay:10.37 W/m2 BKN
06:14 -9.9 °C -11.2 °C 33785.5 hPa West 32.8 km/h 19.6 km/h 87% 0 mm WeatherDisplay:10.37 W/m2 BKN
06:19 -9.9 °C -11.2 °C 33782.1 hPa South 35.7 km/h 25.4 km/h 87% 0 mm WeatherDisplay:10.37 W/m2 BKN
06:24 -9.9 °C -11.2 °C 33782.1 hPa West 50.7 km/h 19.6 km/h 87% 0 mm WeatherDisplay:10.37 W/m2 BKN
06:29 -9.9 °C -11 °C 33782.1 hPa SW 38.8 km/h 25.4 km/h 88% 0 mm WeatherDisplay:10.37 W/m2 BKN
06:34 -9.9 °C -11 °C 33792.3 hPa West 38.8 km/h 23.8 km/h 88% 0 mm WeatherDisplay:10.37 W/m2 BKN
06:39 -9.9 °C -11 °C 33785.5 hPa WNW 71.5 km/h 21.6 km/h 88% 0 mm WeatherDisplay:10.37 W/m2 BKN
06:44 -10 °C -11.1 °C 33788.9 hPa SW 71.5 km/h 37.5 km/h 88% 0 mm WeatherDisplay:10.37 W/m2 BKN
06:49 -10 °C -11.1 °C 33782.1 hPa South 59.5 km/h 39.4 km/h 88% 0 mm WeatherDisplay:10.37 W/m2 BKN
06:54 -10 °C -11.1 °C 33772 hPa SW 53.6 km/h 39.4 km/h 88% 0 mm WeatherDisplay:10.37 W/m2 BKN
06:59 -9.9 °C -11.2 °C 33765.2 hPa WNW 71.5 km/h 29.5 km/h 87% 0 mm WeatherDisplay:10.37 W/m2 BKN
07:04 -9.8 °C -11 °C 33765.2 hPa South 83.4 km/h 41.2 km/h 87% 0 mm WeatherDisplay:10.37 W/m2 BKN
07:09 -9.8 °C -11.1 °C 33761.8 hPa SW 74.5 km/h 39.4 km/h 86% 0 mm WeatherDisplay:10.37 W/m2 BKN
07:14 -9.6 °C -11.1 °C 33755 hPa SW 65.5 km/h 45.4 km/h 84% 0 mm WeatherDisplay:10.37 W/m2 BKN
07:19 -9.6 °C -11.2 °C 33748.3 hPa South 56.6 km/h 31.4 km/h 83% 0 mm WeatherDisplay:10.37 W/m2 BKN
07:24 -9.5 °C -11.3 °C 33734.7 hPa SW 74.5 km/h 37.5 km/h 81% 0 mm WeatherDisplay:10.37 W/m2 BKN
07:29 -9.5 °C -11.4 °C 33717.8 hPa West 89.3 km/h 59.1 km/h 80% 0 mm WeatherDisplay:10.37 W/m2 BKN
07:34 -9.4 °C -11.7 °C 33717.8 hPa NNE 74.5 km/h 55.2 km/h 77% 0 mm WeatherDisplay:10.37 W/m2 BKN
07:39 -9.4 °C -11.7 °C 33711 hPa SW 89.3 km/h 68.9 km/h 76% 0 mm WeatherDisplay:10.37 W/m2 BKN
Earlscliffe, Baily, Howth, Co. Dublin, Ireland
Compliments of Weather Underground - 1.75 mb